Time,TemperatureF,DewpointF,PressureIn,WindDirection,WindDirectionDegrees,WindSpeedMPH,WindSpeedGustMPH,Humidity,HourlyPrecipIn,Conditions,Clouds,dailyrainin,SoftwareType,DateUTC
2014-01-06 00:11:00,46.0,31.0,30.17,East,101,6.0,17.0,55,0.00,,,0.00,,2014-01-06 08:11:00,
2014-01-06 00:21:00,46.0,31.0,30.17,East,101,6.0,17.0,55,0.00,,,0.00,,2014-01-06 08:21:00,
2014-01-06 00:42:00,46.0,31.0,30.18,East,86,6.0,12.0,55,0.00,,,0.00,,2014-01-06 08:42:00,
2014-01-06 00:52:00,46.0,31.0,30.18,East,86,6.0,12.0,55,0.00,,,0.00,,2014-01-06 08:52:00,
2014-01-06 01:21:00,46.0,31.0,30.18,East,92,6.0,13.0,55,0.00,,,0.00,,2014-01-06 09:21:00,
2014-01-06 01:43:00,46.0,31.0,30.18,East,85,5.0,14.0,55,0.00,,,0.00,,2014-01-06 09:43:00,
2014-01-06 01:53:00,46.0,31.0,30.19,ENE,62,6.0,12.0,55,0.00,,,0.00,,2014-01-06 09:53:00,
2014-01-06 02:13:00,46.0,31.0,30.19,East,80,6.0,17.0,56,0.00,,,0.00,,2014-01-06 10:13:00,
2014-01-06 02:23:00,45.0,30.0,30.20,ENE,76,6.0,12.0,56,0.00,,,0.00,,2014-01-06 10:23:00,
2014-01-06 02:42:00,46.0,31.0,30.19,NE,52,7.0,15.0,55,0.00,,,0.00,,2014-01-06 10:42:00,
2014-01-06 02:53:00,45.0,31.0,30.20,ENE,74,5.0,13.0,57,0.00,,,0.00,,2014-01-06 10:53:00,
2014-01-06 03:12:00,45.0,31.0,30.20,East,86,8.0,15.0,57,0.00,,,0.00,,2014-01-06 11:12:00,
2014-01-06 03:21:00,45.0,31.0,30.19,NE,42,7.0,15.0,58,0.00,,,0.00,,2014-01-06 11:21:00,
2014-01-06 03:42:00,45.0,31.0,30.19,NE,53,7.0,12.0,57,0.00,,,0.00,,2014-01-06 11:42:00,
2014-01-06 03:52:00,45.0,31.0,30.20,East,96,5.0,11.0,57,0.00,,,0.00,,2014-01-06 11:52:00,
2014-01-06 04:11:00,46.0,30.0,30.20,NE,52,7.0,13.0,53,0.00,,,0.00,,2014-01-06 12:11:00,
2014-01-06 04:22:00,47.0,30.0,30.20,NE,54,6.0,16.0,51,0.00,,,0.00,,2014-01-06 12:22:00,
2014-01-06 04:42:00,46.0,31.0,30.20,ENE,78,6.0,14.0,55,0.00,,,0.00,,2014-01-06 12:42:00,
2014-01-06 04:52:00,46.0,31.0,30.20,East,83,7.0,15.0,55,0.00,,,0.00,,2014-01-06 12:52:00,
2014-01-06 05:11:00,46.0,29.0,30.20,ENE,57,7.0,15.0,52,0.00,,,0.00,,2014-01-06 13:11:00,
2014-01-06 05:21:00,47.0,30.0,30.20,NNE,18,8.0,16.0,51,0.00,,,0.00,,2014-01-06 13:21:00,
2014-01-06 05:42:00,46.0,29.0,30.20,ENE,78,8.0,15.0,52,0.00,,,0.00,,2014-01-06 13:42:00,
2014-01-06 05:52:00,46.0,30.0,30.21,NE,36,6.0,15.0,53,0.00,,,0.00,,2014-01-06 13:52:00,
2014-01-06 06:11:00,46.0,30.0,30.21,ESE,111,8.0,14.0,53,0.00,,,0.00,,2014-01-06 14:11:00,
2014-01-06 06:21:00,46.0,30.0,30.21,ESE,111,8.0,14.0,53,0.00,,,0.00,,2014-01-06 14:21:00,
2014-01-06 06:42:00,45.0,29.0,30.20,ESE,103,8.0,16.0,54,0.00,,,0.00,,2014-01-06 14:42:00,
2014-01-06 06:52:00,45.0,30.0,30.21,East,87,8.0,19.0,56,0.00,,,0.00,,2014-01-06 14:52:00,
2014-01-06 07:02:00,45.0,30.0,30.21,East,87,8.0,19.0,56,0.00,,,0.00,,2014-01-06 15:02:00,
2014-01-06 07:11:00,45.0,30.0,30.21,East,87,8.0,19.0,56,0.00,,,0.00,,2014-01-06 15:11:00,
2014-01-06 07:22:00,45.0,30.0,30.22,ENE,59,10.0,17.0,55,0.00,,,0.00,,2014-01-06 15:22:00,
2014-01-06 07:43:00,46.0,30.0,30.23,SSE,162,3.0,11.0,53,0.00,,,0.00,,2014-01-06 15:43:00,
2014-01-06 07:53:00,45.0,32.0,30.24,SE,131,1.0,5.0,61,0.00,,,0.00,,2014-01-06 15:53:00,
2014-01-06 08:13:00,43.0,32.0,30.25,ESE,115,2.0,11.0,64,0.00,,,0.00,,2014-01-06 16:13:00,
2014-01-06 08:22:00,42.0,32.0,30.25,ENE,69,2.0,5.0,68,0.00,,,0.00,,2014-01-06 16:22:00,
2014-01-06 08:43:00,43.0,33.0,30.25,ESE,122,1.0,5.0,68,0.00,,,0.00,,2014-01-06 16:43:00,
2014-01-06 08:52:00,43.0,33.0,30.26,ENE,69,1.0,10.0,67,0.00,,,0.00,,2014-01-06 16:52:00,
2014-01-06 09:12:00,41.0,32.0,30.25,ENE,78,7.0,13.0,69,0.00,,,0.00,,2014-01-06 17:12:00,
2014-01-06 09:22:00,41.0,32.0,30.25,SE,124,3.0,8.0,69,0.00,,,0.00,,2014-01-06 17:22:00,
2014-01-06 09:42:00,43.0,32.0,30.24,East,85,6.0,16.0,64,0.00,,,0.00,,2014-01-06 17:42:00,
2014-01-06 09:52:00,43.0,32.0,30.24,East,95,6.0,16.0,64,0.00,,,0.00,,2014-01-06 17:52:00,
2014-01-06 10:12:00,45.0,31.0,30.24,ENE,61,5.0,12.0,58,0.00,,,0.00,,2014-01-06 18:12:00,
2014-01-06 10:22:00,46.0,32.0,30.23,ENE,63,8.0,19.0,57,0.00,,,0.00,,2014-01-06 18:22:00,
2014-01-06 10:42:00,48.0,32.0,30.23,East,82,8.0,17.0,53,0.00,,,0.00,,2014-01-06 18:42:00,
2014-01-06 10:52:00,50.0,32.0,30.24,ENE,78,7.0,14.0,50,0.00,,,0.00,,2014-01-06 18:52:00,
2014-01-06 11:12:00,51.0,33.0,30.24,ENE,63,5.0,13.0,50,0.00,,,0.00,,2014-01-06 19:12:00,
2014-01-06 11:21:00,54.0,33.0,30.25,East,94,3.0,14.0,45,0.00,,,0.00,,2014-01-06 19:21:00,
2014-01-06 11:42:00,55.0,35.0,30.25,ESE,121,4.0,10.0,47,0.00,,,0.00,,2014-01-06 19:42:00,
2014-01-06 11:52:00,55.0,35.0,30.24,South,178,5.0,12.0,46,0.00,,,0.00,,2014-01-06 19:52:00,
2014-01-06 12:11:00,55.0,37.0,30.23,SW,235,3.0,9.0,50,0.00,,,0.00,,2014-01-06 20:11:00,
2014-01-06 12:21:00,54.0,36.0,30.22,NNE,33,2.0,4.0,51,0.00,,,0.00,,2014-01-06 20:21:00,
2014-01-06 12:42:00,53.0,35.0,30.22,NE,55,3.0,10.0,51,0.00,,,0.00,,2014-01-06 20:42:00,
2014-01-06 12:52:00,53.0,40.0,30.22,SW,234,5.0,11.0,61,0.00,,,0.00,,2014-01-06 20:52:00,
2014-01-06 13:12:00,52.0,40.0,30.22,SW,225,4.0,9.0,63,0.00,,,0.00,,2014-01-06 21:12:00,
2014-01-06 13:21:00,52.0,39.0,30.20,WSW,247,2.0,9.0,62,0.00,,,0.00,,2014-01-06 21:21:00,
2014-01-06 13:43:00,51.0,39.0,30.19,SSE,150,0.0,3.0,63,0.00,,,0.00,,2014-01-06 21:43:00,
2014-01-06 13:53:00,51.0,37.0,30.18,East,96,3.0,8.0,59,0.00,,,0.00,,2014-01-06 21:53:00,
2014-01-06 14:13:00,50.0,38.0,30.18,North,355,2.0,4.0,63,0.00,,,0.00,,2014-01-06 22:13:00,
2014-01-06 14:23:00,50.0,39.0,30.19,ESE,119,0.0,4.0,65,0.00,,,0.00,,2014-01-06 22:23:00,
2014-01-06 14:43:00,50.0,39.0,30.18,ENE,77,1.0,4.0,67,0.00,,,0.00,,2014-01-06 22:43:00,
2014-01-06 14:52:00,50.0,38.0,30.18,East,80,2.0,8.0,62,0.00,,,0.00,,2014-01-06 22:52:00,
2014-01-06 15:12:00,51.0,36.0,30.18,ESE,122,4.0,10.0,57,0.00,,,0.00,,2014-01-06 23:12:00,
2014-01-06 15:21:00,51.0,37.0,30.18,NE,50,2.0,7.0,58,0.00,,,0.00,,2014-01-06 23:21:00,
2014-01-06 15:42:00,51.0,39.0,30.19,West,278,0.0,3.0,64,0.00,,,0.00,,2014-01-06 23:42:00,
2014-01-06 15:52:00,50.0,39.0,30.20,West,278,0.0,2.0,67,0.00,,,0.00,,2014-01-06 23:52:00,
2014-01-06 16:11:00,49.0,39.0,30.20,South,180,0.0,2.0,69,0.00,,,0.00,,2014-01-07 00:11:00,
2014-01-06 16:22:00,49.0,39.0,30.19,ENE,76,1.0,3.0,68,0.00,,,0.00,,2014-01-07 00:22:00,
2014-01-06 16:42:00,49.0,39.0,30.19,SE,145,2.0,5.0,68,0.00,,,0.00,,2014-01-07 00:42:00,
2014-01-06 16:52:00,49.0,39.0,30.19,East,89,4.0,8.0,69,0.00,,,0.00,,2014-01-07 00:52:00,
2014-01-06 17:21:00,48.0,39.0,30.20,ESE,113,1.0,3.0,72,0.00,,,0.00,,2014-01-07 01:21:00,
2014-01-06 17:42:00,48.0,39.0,30.21,NW,315,1.0,6.0,71,0.00,,,0.00,,2014-01-07 01:42:00,
2014-01-06 17:52:00,49.0,39.0,30.21,SW,221,4.0,8.0,68,0.00,,,0.00,,2014-01-07 01:52:00,
2014-01-06 18:21:00,48.0,40.0,30.21,NE,47,2.0,5.0,73,0.01,,,0.01,,2014-01-07 02:21:00,
2014-01-06 18:42:00,48.0,40.0,30.22,SSW,209,1.0,5.0,75,0.01,,,0.01,,2014-01-07 02:42:00,
2014-01-06 18:52:00,47.0,40.0,30.22,NNE,28,3.0,6.0,76,0.01,,,0.01,,2014-01-07 02:52:00,
2014-01-06 19:11:00,48.0,41.0,30.22,SSE,167,2.0,9.0,78,0.00,,,0.01,,2014-01-07 03:11:00,
2014-01-06 19:21:00,48.0,41.0,30.22,ESE,108,1.0,5.0,78,0.00,,,0.01,,2014-01-07 03:21:00,
2014-01-06 19:43:00,47.0,41.0,30.22,NE,42,3.0,7.0,78,0.00,,,0.01,,2014-01-07 03:43:00,
2014-01-06 19:53:00,47.0,41.0,30.22,ENE,57,2.0,7.0,79,0.01,,,0.02,,2014-01-07 03:53:00,
2014-01-06 20:12:00,47.0,41.0,30.22,East,86,3.0,8.0,80,0.01,,,0.02,,2014-01-07 04:12:00,
2014-01-06 20:23:00,46.0,41.0,30.22,ENE,77,4.0,15.0,81,0.01,,,0.02,,2014-01-07 04:23:00,
2014-01-06 20:43:00,46.0,41.0,30.22,East,89,5.0,11.0,83,0.01,,,0.02,,2014-01-07 04:43:00,
2014-01-06 20:53:00,46.0,41.0,30.21,NE,44,4.0,12.0,84,0.00,,,0.02,,2014-01-07 04:53:00,
2014-01-06 21:12:00,46.0,42.0,30.21,ENE,61,5.0,11.0,85,0.01,,,0.03,,2014-01-07 05:12:00,
2014-01-06 21:22:00,46.0,42.0,30.20,ENE,75,6.0,13.0,86,0.01,,,0.03,,2014-01-07 05:22:00,
2014-01-06 21:43:00,46.0,42.0,30.20,NNE,31,5.0,11.0,87,0.01,,,0.03,,2014-01-07 05:43:00,
2014-01-06 21:53:00,46.0,43.0,30.20,ESE,104,3.0,10.0,88,0.01,,,0.03,,2014-01-07 05:53:00,
2014-01-06 22:12:00,46.0,43.0,30.19,ENE,59,6.0,13.0,88,0.00,,,0.03,,2014-01-07 06:12:00,
2014-01-06 22:22:00,46.0,43.0,30.19,ENE,69,4.0,10.0,88,0.00,,,0.03,,2014-01-07 06:22:00,
2014-01-06 22:43:00,45.0,42.0,30.20,East,87,4.0,9.0,88,0.00,,,0.03,,2014-01-07 06:43:00,
2014-01-06 22:52:00,45.0,42.0,30.20,ESE,107,4.0,11.0,88,0.00,,,0.03,,2014-01-07 06:52:00,
2014-01-06 23:11:00,45.0,42.0,30.19,East,94,5.0,11.0,89,0.01,,,0.04,,2014-01-07 07:11:00,
2014-01-06 23:22:00,45.0,42.0,30.19,East,99,4.0,12.0,90,0.02,,,0.05,,2014-01-07 07:22:00,
2014-01-06 23:42:00,45.0,42.0,30.18,ENE,71,8.0,15.0,90,0.02,,,0.05,,2014-01-07 07:42:00,
2014-01-06 23:52:00,45.0,42.0,30.17,ENE,78,7.0,21.0,90,0.03,,,0.06,,2014-01-07 07:52:00,